Regional Weather Roundup
Issued by NWS

Home | Current Version | Previous Version | Graphics & Text | Print | Product List | Glossary Off
Versions: 1 2 3 4 5 6 7 8 9 10 11 12 13 14 15 16 17 18 19 20 21 22 23 24 25 26 27 28 29 30 31 32 33 34 35 36 37 38 39 40 41 42 43 44 45 46 47 48 49 50

000
ASUS43 KDMX 272306
RWRIA

WEATHER ROUNDUP FOR IOWA
NATIONAL WEATHER SERVICE DES MOINES IA
600 PM CDT TUE JUN 27 2017

NOTE: "FAIR" INDICATES FEW OR NO CLOUDS BELOW 12,000 FEET WITH NO
SIGNIFICANT WEATHER AND/OR OBSTRUCTIONS TO VISIBILITY.

* - THESE STATIONS ARE NOT NWS STATIONS...THUS NOT UNDER NWS
QUALITY CONTROL.  THEY ALSO DO NOT REPORT WEATHER SUCH
AS PRECIPITATION OR FOG.

IAZ001>003-012>014-020>022-031>034-043>046-280000-
   NORTHWEST IOWA

CITY           SKY/WX    TMP DP  RH WIND       PRES   REMARKS
CARROLL *      SUNNY     79  59  50 S18G24    29.87F HX  80
CHEROKEE *     SUNNY     79  56  44 S21       29.82F HX  80
DENISON *      SUNNY     79  61  53 S21G32    29.86F HX  80
LE MARS *      SUNNY     79  57  47 S18G26    29.80S HX  80
ORANGE CITY *  SUNNY     79  57  47 S17G25    29.80F HX  80
SHELDON *      SUNNY     79  54  41 S20G29    29.79F
SIOUX CITY     SUNNY     80  61  52 S20G28    29.79F HX  81
SPENCER        SUNNY     80  50  34 S21G30    29.83F HX  80
STORM LAKE *   SUNNY     79  55  44 S18G25    29.84F
$$

IAZ055>058-069>071-079>083-090>094-280000-
   SOUTHWEST IOWA

CITY           SKY/WX    TMP DP  RH WIND       PRES   REMARKS
ATLANTIC *     SUNNY     79  61  53 S18       29.87F HX  80
AUDUBON *      SUNNY     79  63  57 S13G18    29.89F HX  80
CLARINDA *     MOSUNNY   77  63  61 S13G22    29.91F
COUNCIL BLFS * MOSUNNY   79  64  61 S22G28    29.85F HX  81
CRESTON *      MOSUNNY   79  59  50 S18G25    29.93F HX  80
HARLAN  *      MOSUNNY   79  61  53 S20G26    29.89F HX  80
LAMONI         MOSUNNY   78  59  51 S10G21    29.94F
RED OAK *      CLOUDY    79  64  61 S18G28    29.87F HX  81
SHENANDOAH *   MOSUNNY   77  64  65 SE15G22   29.88F
$$

IAZ047>049-059>061-072>074-084-280000-
   CENTRAL IOWA

CITY           SKY/WX    TMP DP  RH WIND       PRES   REMARKS
AMES           SUNNY     77  55  46 SE15      29.92F
ANKENY *       SUNNY     77  54  44 SE16      29.93F
BOONE *        SUNNY     77  50  38 SE17      29.91F
CHARITON *     PTSUNNY   79  55  44 S12G18    29.94F
DES MOINES     MOSUNNY   80  52  37 SE15      29.92F HX  80
GRINNELL*      SUNNY     77  48  35 S14       29.98F
KNOXVILLE *    MOSUNNY   77  52  41 S15       29.93F
MARSHALLTOWN   SUNNY     76  48  37 S15G26    29.95F
NEWTON *       SUNNY     75  50  41 S15       29.95F
PELLA *        MOSUNNY   77  49  36 SE10      29.97F
PERRY *          N/A     79  52  39 S13G20    29.91F
$$

IAZ004>006-015-016-023>025-035-036-280000-
   NORTH CENTRAL IOWA

CITY           SKY/WX    TMP DP  RH WIND       PRES   REMARKS
ALGONA *       PTSUNNY   77  46  33 S15G24    29.88F
CLARION *        N/A     75  46  35 S16G23    29.91F
ESTHERVILLE    SUNNY     75  46  35 S21G30    29.85F
FORT DODGE *   SUNNY     79  48  34 S15G22    29.91F
MASON CITY     PTSUNNY   73  42  32 S15G24    29.94F
FOREST CITY *    N/A     75  28  17 S17       29.91F
WEBSTER CITY * SUNNY     77  50  38 SE17      29.90F
IOWA FALLS *     N/A     77  45  32 S13       29.95F
$$

IAZ007>011-017>019-026>030-037>042-050>054-066-280000-
   NORTHEAST IOWA

CITY           SKY/WX    TMP DP  RH WIND       PRES   REMARKS
CEDAR RAPIDS   SUNNY     75  46  35 S12       29.98F
CHARLES CITY * MOSUNNY   73  41  31 S13       29.95F
CLINTON *      MOSUNNY   75  49  39 S13       30.02F
DECORAH *      SUNNY     73  46  38 S12G20    29.96F
DUBUQUE        CLOUDY    73  46  38 S9        30.01F
MONTICELLO *   SUNNY     75  46  35 S9        29.99F
OELWEIN *      SUNNY     75  45  33 S16G22    29.98F
WATERLOO       SUNNY     75  41  29 S15G23    29.95F
$$

IAZ064-065-067-068-078-280000-
   EAST CENTRAL IOWA

CITY           SKY/WX    TMP DP  RH WIND       PRES   REMARKS
IOWA CITY      SUNNY     77  47  34 SE13      30.00F
MT. PLEASANT * SUNNY     78  46  31 S10       30.00F
MUSCATINE *    SUNNY     77  43  29 S10G17    30.01F
QUAD CITIES    SUNNY     75  45  34 S8        30.01F
$$

IAZ062-063-075>077-085>089-095>099-280000-
   SOUTHEAST IOWA

CITY           SKY/WX    TMP DP  RH WIND       PRES   REMARKS
BURLINGTON     SUNNY     76  49  38 S13       30.02F
FAIRFIELD *    CLOUDY    77  46  33 SE12G18   29.98F
FORT MADISON * SUNNY     77  50  38 S7        30.02F
KEOKUK *       SUNNY     77  48  36 S8        30.01F
OSKALOOSA *      N/A     77  50  37 S12       29.97F
CENTERVILLE *    N/A     77  55  47 S8        29.98F
OTTUMWA        MOSUNNY   76  50  40 S12       29.96F
WASHINGTON *   SUNNY     77  48  36 S12       30.00F
$$

ABBREVIATIONS USED IN REMARKS
   TC - TEMPERATURES IN CELSIUS
  WCI - WIND CHILL INDEX
   HX - HEAT INDEX
  VSB - VISIBILITY
$$





USA.gov is the U.S. government's official web portal to all federal, state and local government web resources and services.